SCP
0 0 0 0 0 0 0 0 0 0 1 1 1 0 0 0 0 0 0 0 0 0 0 0 0 0 0 0 0 0 -0 0
0 0 0 0 0 0 0 0 0 0 0 0 0 0 1 1 0 0 0 0 0 0 0 0 0 0 0 0 0 0 0 0
0 0 0 0 0 0 0 0 0 0 0 0 0 1 1 1 1 0 0 0 0 0 0 0 0 0 0 0 0 0 0 0
0 0 0 0 0 0 0 0 0 0 0 0 0 0 0 0 0 0 0 0 0 0 1 0 0 0 0 0 0 0 0 0
0 0 0 0 0 0 0 0 0 0 0 0 0 0 0 0 0 0 0 1 1 1 1 1 0 1 0 0 0 0 0 0
0 0 0 0 0 0 0 0 0 0 0 0 0 0 0 0 0 0 0 0 0 0 1 1 0 1 0 0 0 0 0 0
0 0 0 0 0 0 0 0 0 0 0 0 0 0 0 0 0 0 0 0 0 0 0 0 1 1 1 1 0 0 0 0
0 0 0 0 0 0 0 0 0 0 0 0 0 0 0 0 0 0 0 0 0 0 0 0 0 1 1 1 1 1 1 0
0 0 0 0 0 0 0 0 0 0 0 0 0 0 0 0 0 0 0 0 0 0 0 0 0 0 0 1 1 1 1 1
0 0 0 0 0 0 0 0 0 0 0 0 0 0 0 0 0 0 0 0 0 0 0 0 0 0 0 0 0 1 1 1
0 0 0 0 0 0 0 0 0 0 0 0 0 0 0 0 0 0 0 0 0 0 0 0 0 0 0 0 0 0 0 2
0 0 0 0 0 0 0 0 0 0 0 0 0 0 0 0 0 0 0 0 0 0 0 0 0 0 0 0 0 0 0 0
0 0 0 0 0 0 0 0 0 0 0 0 0 0 0 0 0 0 0 0 0 0 0 0 0 0 0 0 0 0 0 0
0 0 0 0 0 0 0 0 0 0 0 0 0 0 0 0 0 0 0 0 0 0 0 0 0 0 -0 0 0 0 0 0
0 0 0 0 0 0 0 0 0 0 0 0 0 0 0 0 0 0 0 0 0 0 0 0 0 0 0 0 -0 0 0 0
0 0 0 0 0 0 0 0 0 0 0 0 0 0 0 0 0 0 0 0 0 0 0 0 0 0 0 0 0 0 0 -0
0 0 0 0 0 0 0 0 0 0 0 0 0 0 0 0 0 0 0 0 0 0 0 0 0 0 0 0 0 0 0 0
0 0 0 0 0 0 0 0 0 0 0 0 0 0 0 0 0 0 0 0 0 0 0 0 0 0 0 0 0 0 0 0
0 0 0 0 0 0 0 0 0 0 0 0 0 0 0 0 0 0 0 0 0 0 0 0 0 0 0 0 0 0 0 0
0 0 0 0 0 0 0 0 0 0 0 0 0 0 0 0 0 0 0 0 0 0 0 0 0 0 0 0 0 0 0 0
Wind_Speed_500mb
8 7 7 14 16 10 12 14 16 16 16 17 18 20 21 19 20 25 26 26 26 27 25 24 25 25 25 24 24 23 18 18
7 8 9 11 14 16 15 14 15 19 22 21 19 21 22 23 23 24 24 30 33 32 32 32 31 29 29 28 29 29 26 22
14 13 12 13 14 14 14 14 14 14 17 20 22 22 25 25 28 27 30 29 30 35 37 39 39 38 36 35 34 30 25 26
19 16 13 12 13 13 15 15 14 15 16 18 18 20 26 28 30 34 34 36 37 37 38 41 43 38 35 40 39 31 30 30
21 19 16 14 14 17 18 19 19 21 22 23 23 26 30 35 40 37 36 38 33 34 37 39 35 37 37 38 36 34 35 35
23 22 21 22 23 24 26 25 25 25 27 27 27 29 31 34 36 38 40 43 44 42 44 45 48 46 43 44 45 44 41 39
22 21 21 21 22 23 23 24 26 27 29 30 31 31 32 34 36 38 41 44 45 48 50 53 46 51 53 47 49 50 51 48
21 20 20 20 20 21 23 26 29 29 28 29 32 34 36 37 38 40 41 42 44 47 48 52 54 54 56 59 55 53 55 55
18 18 20 20 22 23 24 24 24 27 32 36 36 34 36 37 39 40 42 44 44 42 42 46 54 58 63 58 64 61 61 60
17 18 20 21 23 24 25 28 30 32 34 35 36 40 40 39 39 41 44 43 44 46 43 47 48 53 65 61 65 55 65 63
15 16 18 19 21 24 27 30 32 35 38 40 43 43 43 44 44 46 47 45 43 44 44 45 48 52 54 65 76 83 68 69
17 19 22 25 26 27 26 28 30 32 35 38 41 43 43 42 44 49 49 44 43 47 51 56 51 49 56 62 66 75 86 83
17 17 18 19 23 27 29 33 33 33 36 38 38 39 40 39 37 38 42 46 52 54 55 54 54 53 56 54 62 70 78 86
18 23 27 30 32 34 34 33 32 34 37 38 40 40 40 38 39 40 44 48 51 56 60 62 48 39 50 53 48 50 48 47
20 22 26 29 31 32 34 31 30 33 37 37 42 42 43 41 41 43 44 46 50 54 53 50 57 48 32 27 26 28 63 51
16 20 24 28 32 34 37 34 34 38 37 37 37 38 37 38 41 44 44 47 49 52 50 51 47 47 41 34 44 51 33 51
13 16 21 24 28 31 33 34 33 33 32 37 35 37 37 37 40 44 46 49 50 52 51 47 42 41 43 47 50 57 66 67
8 12 17 22 27 31 34 36 36 32 33 32 32 32 34 35 42 43 44 46 50 52 48 42 48 52 52 51 53 58 62 62
4 10 15 23 28 31 35 37 36 34 33 34 37 34 35 35 43 45 45 48 49 47 46 50 42 41 45 49 51 54 59 64
2 8 13 21 27 32 35 39 35 33 33 33 32 35 38 39 42 47 48 49 46 43 47 46 46 48 51 52 59 57 54 53
Wind_Direction_500mb
127 101 57 32 19 351 312 308 302 296 293 293 291 289 287 284 290 294 292 286 284 282 280 281 284 281 277 276 275 271 260 261
85 69 39 26 26 28 27 0 326 310 303 302 305 299 293 281 279 278 279 291 293 289 285 281 279 279 275 271 272 270 263 250
85 77 67 58 47 27 9 356 347 342 328 315 306 301 299 295 285 280 273 274 276 285 288 285 282 278 276 273 268 267 257 255
91 85 73 56 40 24 13 10 358 340 326 319 318 315 311 307 299 291 288 282 279 277 275 277 277 276 280 285 268 259 257 251
87 81 70 55 41 26 17 10 0 355 351 346 333 320 311 305 308 303 295 287 286 285 281 276 266 265 261 263 264 263 260 259
83 77 74 69 64 54 47 37 29 21 11 360 347 332 322 315 311 312 307 299 290 277 277 279 276 267 263 261 261 262 259 259
91 84 76 64 53 45 37 25 15 7 359 352 346 340 335 330 322 314 310 307 305 297 286 275 274 276 270 264 261 259 260 257
80 68 59 50 41 31 20 9 1 356 348 342 336 331 328 325 321 317 314 312 308 304 298 290 284 266 275 269 263 257 257 257
75 59 47 38 30 21 11 1 351 342 336 331 329 325 321 321 320 316 313 313 312 311 305 295 282 280 266 269 270 260 257 253
62 46 30 18 11 4 355 348 345 339 333 329 324 321 324 325 321 318 317 317 316 314 313 306 300 288 273 266 261 265 261 255
55 39 26 17 8 359 352 348 343 338 334 332 330 327 325 327 325 323 324 323 323 321 316 315 312 304 296 280 271 262 263 259
42 29 18 11 3 1 358 353 348 346 342 337 334 332 330 327 323 323 325 327 323 321 319 316 316 311 304 295 287 276 265 258
37 28 20 12 7 6 4 3 358 354 350 345 341 337 332 329 326 325 324 326 325 325 322 319 315 317 311 299 290 284 278 270
32 23 17 14 10 7 3 357 354 352 348 345 342 340 337 334 330 329 329 329 328 327 325 322 318 316 315 313 304 293 281 267
32 22 15 11 7 2 360 357 353 345 345 341 338 337 336 334 331 329 329 329 328 328 325 320 315 315 311 301 312 296 308 286
31 23 15 6 1 357 354 353 346 339 338 333 331 330 329 328 327 327 324 325 327 327 324 320 318 314 306 294 283 281 300 303
30 19 6 356 350 348 346 344 340 335 333 332 331 332 333 332 331 329 325 324 322 326 326 322 316 306 298 293 286 289 290 283
19 8 352 349 347 346 346 346 343 336 331 332 329 330 327 329 327 326 322 320 319 321 322 311 304 300 296 295 293 290 288 284
6 2 352 347 348 347 346 344 342 337 334 331 331 326 324 328 328 324 323 321 322 318 311 314 310 303 301 297 290 286 280 276
357 352 350 343 341 343 344 341 338 336 332 331 328 326 331 327 320 325 323 321 321 317 311 311 313 310 308 303 298 294 289 281
Wind_Speed_850mb
8 7 7 14 16 10 12 14 16 16 16 17 18 20 21 19 20 25 26 26 26 27 25 24 25 25 25 24 24 23 18 18
7 8 9 11 14 16 15 14 15 19 22 21 19 21 22 23 23 24 24 30 33 32 32 32 31 29 29 28 29 29 26 22
14 13 12 13 14 14 14 14 14 14 17 20 22 22 25 25 28 27 30 29 30 35 37 39 39 38 36 35 34 30 25 26
19 16 13 12 13 13 15 15 14 15 16 18 18 20 26 28 30 34 34 36 37 37 38 41 43 38 35 40 39 31 30 30
21 19 16 14 14 17 18 19 19 21 22 23 23 26 30 35 40 37 36 38 33 34 37 39 35 37 37 38 36 34 35 35
23 22 21 22 23 24 26 25 25 25 27 27 27 29 31 34 36 38 40 43 44 42 44 45 48 46 43 44 45 44 41 39
22 21 21 21 22 23 23 24 26 27 29 30 31 31 32 34 36 38 41 44 45 48 50 53 46 51 53 47 49 50 51 48
21 20 20 20 20 21 23 26 29 29 28 29 32 34 36 37 38 40 41 42 44 47 48 52 54 54 56 59 55 53 55 55
18 18 20 20 22 23 24 24 24 27 32 36 36 34 36 37 39 40 42 44 44 42 42 46 54 58 63 58 64 61 61 60
17 18 20 21 23 24 25 28 30 32 34 35 36 40 40 39 39 41 44 43 44 46 43 47 48 53 65 61 65 55 65 63
15 16 18 19 21 24 27 30 32 35 38 40 43 43 43 44 44 46 47 45 43 44 44 45 48 52 54 65 76 83 68 69
17 19 22 25 26 27 26 28 30 32 35 38 41 43 43 42 44 49 49 44 43 47 51 56 51 49 56 62 66 75 86 83
17 17 18 19 23 27 29 33 33 33 36 38 38 39 40 39 37 38 42 46 52 54 55 54 54 53 56 54 62 70 78 86
18 23 27 30 32 34 34 33 32 34 37 38 40 40 40 38 39 40 44 48 51 56 60 62 48 39 50 53 48 50 48 47
20 22 26 29 31 32 34 31 30 33 37 37 42 42 43 41 41 43 44 46 50 54 53 50 57 48 32 27 26 28 63 51
16 20 24 28 32 34 37 34 34 38 37 37 37 38 37 38 41 44 44 47 49 52 50 51 47 47 41 34 44 51 33 51
13 16 21 24 28 31 33 34 33 33 32 37 35 37 37 37 40 44 46 49 50 52 51 47 42 41 43 47 50 57 66 67
8 12 17 22 27 31 34 36 36 32 33 32 32 32 34 35 42 43 44 46 50 52 48 42 48 52 52 51 53 58 62 62
4 10 15 23 28 31 35 37 36 34 33 34 37 34 35 35 43 45 45 48 49 47 46 50 42 41 45 49 51 54 59 64
2 8 13 21 27 32 35 39 35 33 33 33 32 35 38 39 42 47 48 49 46 43 47 46 46 48 51 52 59 57 54 53
Wind_Direction_850mb
127 101 57 32 19 351 312 308 302 296 293 293 291 289 287 284 290 294 292 286 284 282 280 281 284 281 277 276 275 271 260 261
85 69 39 26 26 28 27 0 326 310 303 302 305 299 293 281 279 278 279 291 293 289 285 281 279 279 275 271 272 270 263 250
85 77 67 58 47 27 9 356 347 342 328 315 306 301 299 295 285 280 273 274 276 285 288 285 282 278 276 273 268 267 257 255
91 85 73 56 40 24 13 10 358 340 326 319 318 315 311 307 299 291 288 282 279 277 275 277 277 276 280 285 268 259 257 251
87 81 70 55 41 26 17 10 0 355 351 346 333 320 311 305 308 303 295 287 286 285 281 276 266 265 261 263 264 263 260 259
83 77 74 69 64 54 47 37 29 21 11 360 347 332 322 315 311 312 307 299 290 277 277 279 276 267 263 261 261 262 259 259
91 84 76 64 53 45 37 25 15 7 359 352 346 340 335 330 322 314 310 307 305 297 286 275 274 276 270 264 261 259 260 257
80 68 59 50 41 31 20 9 1 356 348 342 336 331 328 325 321 317 314 312 308 304 298 290 284 266 275 269 263 257 257 257
75 59 47 38 30 21 11 1 351 342 336 331 329 325 321 321 320 316 313 313 312 311 305 295 282 280 266 269 270 260 257 253
62 46 30 18 11 4 355 348 345 339 333 329 324 321 324 325 321 318 317 317 316 314 313 306 300 288 273 266 261 265 261 255
55 39 26 17 8 359 352 348 343 338 334 332 330 327 325 327 325 323 324 323 323 321 316 315 312 304 296 280 271 262 263 259
42 29 18 11 3 1 358 353 348 346 342 337 334 332 330 327 323 323 325 327 323 321 319 316 316 311 304 295 287 276 265 258
37 28 20 12 7 6 4 3 358 354 350 345 341 337 332 329 326 325 324 326 325 325 322 319 315 317 311 299 290 284 278 270
32 23 17 14 10 7 3 357 354 352 348 345 342 340 337 334 330 329 329 329 328 327 325 322 318 316 315 313 304 293 281 267
32 22 15 11 7 2 360 357 353 345 345 341 338 337 336 334 331 329 329 329 328 328 325 320 315 315 311 301 312 296 308 286
31 23 15 6 1 357 354 353 346 339 338 333 331 330 329 328 327 327 324 325 327 327 324 320 318 314 306 294 283 281 300 303
30 19 6 356 350 348 346 344 340 335 333 332 331 332 333 332 331 329 325 324 322 326 326 322 316 306 298 293 286 289 290 283
19 8 352 349 347 346 346 346 343 336 331 332 329 330 327 329 327 326 322 320 319 321 322 311 304 300 296 295 293 290 288 284
6 2 352 347 348 347 346 344 342 337 334 331 331 326 324 328 328 324 323 321 322 318 311 314 310 303 301 297 290 286 280 276
357 352 350 343 341 343 344 341 338 336 332 331 328 326 331 327 320 325 323 321 321 317 311 311 313 310 308 303 298 294 289 281